Flag for Norway Weather past 2 weeks in Vadsø, Norway

Now
25 °F

Passing clouds.


Feels Like: 10 °F
Forecast: 26 / 34 °F
Wind: 23 mph from South

Location: Vadso

Current Time: Oct 23, 2014 at 6:46:53 PM

Latest Report: Oct 23, 2014 at 5:50 PM


Visibility: N/A

Pressure: 30.30 "Hg

Humidity: 63%

Dew point: 14 °F

Location of VadsøLocation

Historic Weather in Vadsø — Graph

°F

Vadsø temperature yesterday

Maximum temperature yesterday: 25 °F (at 12:50 PM)
Minimum temperature yesterday: 21 °F (at 7:50 AM)
Average temperature yesterday: 23 °F

Past Weeks' High & Low Weather Summary

 TemperatureHumidityPressure
High39 °F (Oct 9, 11:50 AM)100% (Oct 13, 10:50 PM)30.39 "Hg (Oct 13, 10:50 PM)
Low21 °F (Oct 21, 8:50 AM)59% (Oct 20, 7:50 AM)29.74 "Hg (Oct 20, 4:50 AM)
Average30 °F82%30.04 "Hg
* Reported Oct 8 5:50 PM — Oct 23 4:50 PM, Vadsø, Weather by CustomWeather, © 2014

Note: Actual official high and low records may vary slightly from our data, if they occured in-between our weather recording intervals... More about our weather records

Advertising

Vadsø weather history for previous 24 hours

 ConditionsComfort  
Time TempWeatherWind HumidityBarometerVisibility
4:50 PM
Oct 23
25 °FPassing clouds.22 mph69%30.30 "HgN/A
3:50 PM27 °FClear.22 mph64%30.33 "Hg10 mi
2:50 PM27 °FPassing clouds.22 mph64%30.33 "HgN/A
1:50 PM27 °FPassing clouds.22 mph74%30.33 "HgN/A
12:50 PM27 °FPassing clouds.21 mph74%30.33 "HgN/A
11:50 AM27 °FPassing clouds.23 mph74%30.33 "HgN/A
10:50 AM25 °FPassing clouds.20 mph80%30.33 "HgN/A
9:50 AM23 °FPassing clouds.17 mph74%30.36 "HgN/A
8:50 AM23 °FPassing clouds.18 mph74%30.36 "HgN/A
7:50 AM23 °FPassing clouds.23 mph74%30.36 "HgN/A
7:20 AM23 °FPassing clouds.18 mph80%30.36 "HgN/A
4:50 AM23 °FPassing clouds.25 mph80%30.33 "HgN/A
11:50 PM
Oct 22
23 °FPassing clouds.25 mph74%30.36 "HgN/A
10:50 PM23 °FPassing clouds.25 mph74%30.36 "HgN/A
9:50 PM23 °FPassing clouds.18 mph74%30.36 "HgN/A
8:50 PM23 °FPassing clouds.21 mph74%30.36 "HgN/A
7:50 PM23 °FPassing clouds.21 mph68%30.36 "HgN/A
6:50 PM25 °FPassing clouds.22 mph69%30.36 "HgN/A
Weather by CustomWeather, © 2014

See weather overviewHow to use our weather pages